{"data":{"norad_id":64456,"epoch":"2026-05-25T03:39:55.308672Z","epoch_age_seconds":61755,"freshness":"FRESH","line1":"1 64456U 25130U   26145.15272348  .00009359  00000+0  32768-3 0  9990","line2":"2 64456  53.1566  93.1012 0001209  77.6877 282.4259 15.30204320 52417","mean_motion":15.3020432,"eccentricity":0.0001209,"inclination_deg":53.1566,"raan_deg":93.1012,"arg_perigee_deg":77.6877,"mean_anomaly_deg":282.4259,"bstar":0.00032768,"rev_number":5241,"period_min":94.105080032711,"perigee_km":474.37360200262,"apogee_km":476.03073941409,"semimajor_km":6853.3391707084,"source":"CELESTRAK","updated_at":"2026-05-25T13:38:20.452131Z"}}